Portada
METAR-TAF:

METAR-TAF

Aeroports :

Providencia Island, Colòmbia

latitud: 13-22N, longitud: 081-21W, altitud: 6 m

Observació

L'informe es va fer fa 55 minuts, a les 17:00 UTC
Vent 4 kt del Est, variant entre Oest/Nord-Oest i Est/Sud-Est
Temperatura 31°C
Humitat 66%
Pressió 1011 hPa
Visibilitat 10 km o més
Escasses núvols a una alçada de 1800 ft
Núvols disperses a una alçada de 20000 ft

METAR: SKPV 171700Z 08004KT 300V120 9999 FEW018 SCT200 31/24 A2985

Hora: 12:55 (17:55 UTC)


TAF: manca

Observacions i pronòstics meteorològics de més de 4000 aeroports (METAR i TAF).

Les estacions disponibles són els punts grocs i vermells al mapa.

Posi el ratolí al punt desitjat per veure el nom de l'estació.

Feu clic per veure les observacions i els pronòstics meteorològics.

Per canviar el mapa: feu clic els botons verds amb una creu de color negre per apropar; al botó verd amb un guió per allunyar la imatge; o en les fletxes verdes per a mapes adjacents.


METAR-TAF: